Location: Newark
(44.1667°N, 8.2500°E)
Time: 11:28:55
(UTC+00:00)

Transit 4A - Pass Details

Date: 10 December 2019
Orbit: 872 x 973 km, 66.8° (Epoch: 28 January)

Event Time Altitude Azimuth Distance (km) Brightness Sun altitude
Rises 16:36:05 0° 213° (SSW) 3,609 12.0 -8.4°
Reaches altitude 10° 16:38:38 10° 214° (SW) 2,654 11.3 -8.8°
Maximum altitude 16:44:50 80° 302° (WNW) 943 8.0 -9.9°
Drops below altitude 10° 16:50:53 10° 30° (NNE) 2,597 9.8 -10.9°
Enters shadow 16:51:43 - 31° (NNE) 2,904 10.0 -11.0°
